Regional Weather Roundup
Issued by NWS Little Rock, AR

Home | Current Version | Previous Version | Text Only | Print | Product List | Glossary On
Versions: 1 2 3 4 5 6 7 8 9 10 11 12 13 14 15 16 17 18 19 20 21 22 23 24 25 26 27 28 29 30 31 32 33 34 35 36 37 38 39 40 41 42 43 44 45 46 47 48 49 50
000
ASUS44 KLZK 281305
RWRLZK

WEATHER ROUNDUP FOR ARKANSAS
NATIONAL WEATHER SERVICE LITTLE ROCK AR
800 AM CDT THU AUG 28 2014

NOTE: "FAIR" INDICATES FEW OR NO CLOUDS BELOW 12,000 FEET WITH NO
SIGNIFICANT WEATHER AND/OR OBSTRUCTIONS TO VISIBILITY.

ARZ001-003-010-029-281400-
NORTHWEST ARKANSAS

CITY           SKY/WX    TMP DP  RH WIND       PRES   REMARKS
FAYETTEVILLE   SUNNY     69  68  96 S3        30.06R
FORT SMITH     SUNNY     75  72  90 E6        30.01R FOG
HARRISON       SUNNY     71  69  93 SE3       30.07R
BENTONVILLE    SUNNY     72  68  88 SE5       30.06R
ROGERS         MOSUNNY   72  68  87 SE7       30.06R
SILOAM SPGS    SUNNY     72  63  73 SE6       30.05S
HIGHFILL       MOSUNNY   72  68  87 CALM      30.04R
SPRINGDALE     SUNNY     72  68  88 S7        30.07R
$$

ARZ004-005-016-281400-
NORTH CENTRAL ARKANSAS

CITY           SKY/WX    TMP DP  RH WIND       PRES   REMARKS
BATESVILLE     SUNNY     72  70  94 CALM      30.04S
FLIPPIN        SUNNY     70  64  83 CALM      30.06R
MTN HOME       SUNNY     73  69  87 SE3       30.06R
$$

ARZ040-041-281400-
WEST CENTRAL ARKANSAS

CITY           SKY/WX    TMP DP  RH WIND       PRES   REMARKS
MENA           CLOUDY    70  68  94 CALM      30.05R VSB<1/4
MOUNT IDA      FOG       68  67  96 CALM      30.02R VSB<1/4
$$

ARZ009-017-025-026-028-281400-
NORTHEAST ARKANSAS

CITY           SKY/WX    TMP DP  RH WIND       PRES   REMARKS
CORNING          N/A     75  75 100 CALM      30.05R FOG
JONESBORO      SUNNY     76  71  85 CALM      30.04R
NEWPORT        SUNNY     76  73  90 CALM      30.05R
WALNUT RIDGE   SUNNY     72  70  94 E3        30.04R
BLYTHEVILLE    PTSUNNY   79  77  94 CALM      30.04R
$$

ARZ022-023-033-042-044-281400-
CENTRAL ARKANSAS

CITY           SKY/WX    TMP DP  RH WIND       PRES   REMARKS
LITTLE ROCK    MOSUNNY   76  71  85 CALM      30.02S
N LITTLE ROCK    N/A     76  72  88 E2        30.02S
JACKSONVILLE   SUNNY     73  69  87 CALM      30.03R FOG
SEARCY         SUNNY     74  72  93 CALM      30.04S
HOT SPRINGS    MOSUNNY   71  68  90 CALM      30.03S
RUSSELLVILLE   SUNNY     73  70  90 CALM      30.03R FOG
CLINTON        FAIR      70  70 100 CALM      30.06R FOG
$$

ARZ036-281400-
EAST ARKANSAS

CITY           SKY/WX    TMP DP  RH WIND       PRES   REMARKS
WEST MEMPHIS   SUNNY     75  72  90 CALM      30.02R
$$

ARZ050-053-066-070-073-281400-
SOUTHWEST ARKANSAS

CITY           SKY/WX    TMP DP  RH WIND       PRES   REMARKS
ARKADELPHIA    FAIR      73  73 100 NE5       30.02R FOG
CAMDEN         SUNNY     72  68  88 CALM      30.01R
TEXARKANA      MOSUNNY   72  68  87 CALM      30.00R
EL DORADO      SUNNY     72  69  90 CALM      30.01R
DE QUEEN       SUNNY     70  69  97 NE3       29.99S FOG
$$

ARZ056-057-069-281400-
SOUTHEAST ARKANSAS

CITY           SKY/WX    TMP DP  RH WIND       PRES   REMARKS
PINE BLUFF     SUNNY     72  69  90 CALM      30.02S
STUTTGART      SUNNY     75  68  78 E5        30.03S
MONTICELLO     SUNNY     74  68  81 CALM      30.01S

$$




USA.gov is the U.S. government's official web portal to all federal, state and local government web resources and services.